Williamsport, PA

12:07 PM EST on November 23, 2017 (GMT -0500)
Williamsport Rgnl

Weather History for KIPT - March, 2013

Change the Weather History Date:

Friday, March 15, 2013

  Actual Average Record
Temperature  
Mean Temperature 34 °F 38 °F  
Max Temperature 45 °F 47 °F 80 °F (1990)
Min Temperature 22 °F 28 °F 2 °F (1993)
Degree Days  
Heating Degree Days 31 27  
Month to date heating degree days 410 445  
Since 1 July heating degree days 4576 4912  
Cooling Degree Days 0 0  
Month to date cooling degree days 0 0  
Year to date cooling degree days 0 0  
Moisture  
Dew Point 21 °F    
Average Humidity 61    
Maximum Humidity 77    
Minimum Humidity 45    
Precipitation  
Precipitation 0.00 in 0.09 in 1.42 in (1967)
Month to date precipitation 0.64 1.31  
Year to date precipitation 5.10 6.35  
Snow  
Snow 0.00 in 0.20 in 9.50 in (1906)
Month to date snowfall 0.1 4.2  
Since 1 July snowfall 27.2 32.2  
Snow Depth 0.00 in    
Sea Level Pressure  
Sea Level Pressure 29.89 in    
Wind  
Wind Speed 8 mph (West)    
Max Wind Speed 22 mph    
Max Gust Speed 29 mph    
Visibility 10 miles    
Events      
T = Trace of Precipitation, MM = Missing Value Source: NWS Daily Summary

Daily Weather History Graph

Daily Weather History Graph

Search for Another Location

Airport or City:

Trip Planner

Search our weather history database for the weather conditions in past years. The results will help you decide how hot, cold, wet, or windy it might be!

Date:

Astronomy

Mar. 15, 2013 Rise Set
Actual Time 7:19 AM EDT 7:14 PM EDT
Civil Twilight 6:51 AM EDT 7:42 PM EDT
Nautical Twilight 6:19 AM EDT 8:14 PM EDT
Astronomical Twilight 5:47 AM EDT 8:46 PM EDT
Moon 9:05 AM EDT (3/15) 11:29 PM EDT (3/15)
Length of Visible Light 12h 50m
Length of Day
11h 55m
Waxing Crescent, 15% of the Moon is Illuminated
Mar 15
Waxing Crescent
Mar 19
First Quarter
Mar 27
Full
Apr 3
Last Quarter
Apr 10
New

Hourly Weather History & Observations

Time (EDT) Temp. Windchill Dew Point Humidity Pressure Visibility Wind Dir Wind Speed Gust Speed Precip Events Conditions
12:54 AM 27.0 °F 18.0 °F 12.0 °F 53% 30.06 in 10.0 mi West 9.2 mph 20.7 mph N/A   Clear
1:54 AM 26.6 °F 17.5 °F 12.2 °F 55% 30.05 in 10.0 mi West 9.2 mph - N/A   Clear
2:54 AM 26.1 °F 19.4 °F 12.9 °F 58% 30.06 in 10.0 mi NW 5.8 mph - N/A   Clear
3:54 AM 25.0 °F 19.3 °F 14.0 °F 63% 30.04 in 10.0 mi West 4.6 mph - N/A   Clear
4:54 AM 25.0 °F 19.3 °F 15.1 °F 66% 30.01 in 10.0 mi West 4.6 mph - N/A   Clear
5:54 AM 21.9 °F - 14.0 °F 72% 30.00 in 10.0 mi Calm Calm - N/A   Clear
6:54 AM 21.9 °F - 15.1 °F 75% 30.00 in 10.0 mi Calm Calm - N/A   Clear
7:54 AM 23.0 °F 18.4 °F 16.0 °F 74% 29.98 in 10.0 mi North 3.5 mph - N/A   Partly Cloudy
8:54 AM 27.0 °F - 18.0 °F 69% 29.96 in 10.0 mi Calm Calm - N/A   Mostly Cloudy
9:54 AM 28.9 °F 25.2 °F 18.0 °F 64% 29.93 in 10.0 mi ESE 3.5 mph - N/A   Overcast
10:54 AM 30.9 °F 26.2 °F 19.9 °F 64% 29.90 in 10.0 mi ESE 4.6 mph - N/A   Overcast
11:54 AM 35.1 °F 32.2 °F 21.0 °F 57% 29.87 in 10.0 mi SE 3.5 mph - N/A   Overcast
12:54 PM 41.0 °F 32.5 °F 24.1 °F 51% 29.83 in 10.0 mi West 17.3 mph 23.0 mph N/A   Overcast
1:54 PM 45.0 °F 38.2 °F 26.1 °F 48% 29.79 in 10.0 mi West 15.0 mph - N/A   Overcast
2:54 PM 44.1 °F 37.7 °F 25.0 °F 47% 29.76 in 10.0 mi West 12.7 mph 21.9 mph N/A   Overcast
3:54 PM 45.0 °F 39.7 °F 27.0 °F 49% 29.75 in 10.0 mi WNW 10.4 mph 18.4 mph N/A   Overcast
4:54 PM 45.0 °F 39.3 °F 27.0 °F 49% 29.75 in 10.0 mi WNW 11.5 mph - N/A   Overcast
5:54 PM 45.0 °F 39.7 °F 27.0 °F 49% 29.75 in 10.0 mi West 10.4 mph 21.9 mph N/A   Overcast
6:54 PM 44.6 °F 37.2 °F 26.6 °F 49% 29.76 in 10.0 mi WNW 17.3 mph 21.9 mph N/A   Overcast
7:54 PM 43.0 °F 35.1 °F 27.0 °F 53% 29.80 in 10.0 mi West 17.3 mph 24.2 mph N/A   Overcast
8:54 PM 42.1 °F 35.7 °F 28.0 °F 58% 29.81 in 10.0 mi West 11.5 mph 20.7 mph N/A   Overcast
9:54 PM 41.0 °F 33.5 °F 27.0 °F 57% 29.83 in 10.0 mi WNW 13.8 mph - N/A   Overcast
10:54 PM 39.9 °F 33.9 °F 26.1 °F 58% 29.84 in 10.0 mi WNW 9.2 mph - N/A   Overcast
11:54 PM 39.0 °F 34.8 °F 25.0 °F 57% 29.84 in 10.0 mi West 5.8 mph - N/A   Overcast